7 * 24
多渠道服务支持
GEESAT 1-09是中国吉利科技集团旗下Geespace研制的低轨商业卫星,于北京时间2022年6月2日,在西昌卫星发射中心,随GEESAT 1系列首批九颗卫星一同发射入轨。它是中国首批模块化量产商业卫星,属于GEESAT星座组网星,将为智能驾驶提供高精度定位,同时支撑全球物联网覆盖建设,赋能低空经济、智慧海洋等多个新兴领域。
中国
(CN)
| 数据来源 | 国际轨道数据 |
| 星历时间: | 2026-06-12T14:00:10+0800 14小时前 查看轨道信息 |
| 半长轴: | 6943.413km |
| 偏心率: | 0.0006277 |
| 轨道倾角: | 49.996° |
| 近地点辐角 | 152.994° |
| 升交点赤经 | 205.251° |
| 平近点角 | 207.133° |
| 近地点: | 560.917km |
| 远地点: | 569.635km |
| 周期: | 95.966分钟 |
| 每日圈数: | 15.005252 |